Orbital Elements at Epoch 2459000.5 (2020-May-31.0) TDB
Reference: JPL 31 (heliocentric ecliptic J2000)
Element | Value | Uncertainty (1-sigma) | Units |
e | .2071379535183425 | 2.9561e-08 | |
a | 2.552068506470706 | 7.9392e-09 | au |
q | 2.023438258801752 | 7.4587e-08 | au |
i | 5.062804768842401 | 4.1607e-06 | deg |
node | 182.6468970223601 | 4.8868e-05 | deg |
peri | 202.1327233328358 | 5.0691e-05 | deg |
M | 103.4835188303642 | 1.4057e-05 | deg |
tp | 2458572.439054578962 (2019-Mar-29.93905458) | 5.7295e-05 | TDB |
period | 1489.144765208323 4.08 | 6.9488e-06 1.902e-08 | d yr |
n | .2417494983771024 | 1.1281e-09 | deg/d |
Q | 3.080698754139661 | 9.5837e-09 | au |
|
| | Orbit Determination Parameters
Additional Information
|